Find Starlink 36369

NORAD ID: 67723 Int'l Des: 2026-026 Owner: SPXS Country: US Constellation: starlink operational
LEOCIRCULARRETROGRADE

Live Position

Loading 3D Globe...

About Starlink 36369

Description loading...

Upcoming Passes

Passes for default location (London). Set your location on the main map for personalized predictions.

Altitude History

Loading altitude history...

Two-Line Element Set

1 67723U 26026C 26110.39176965 .00016872 00000-0 52385-3 0 9997
2 67723 97.2829 164.3560 0000873 85.7012 274.4330 15.33439822 10510
Epoch: Apr 20, 2026 • Age: 9 hours

Current Status

Altitude 474.4 km
Velocity 7.63 km/s
Sub-Earth Point -22.79°S, 38.44°E
Launch Date Feb 11, 2026
Age 0.1 years
Type internet

Technical Details

Classification Payload
Mass 575.00 kg
Dry Mass 530.00 kg
Total Mass 575.00 kg
Length 0.30 m
Diameter 4.10 m
Span 29.00 m
Shape Box + pan
Manufacturer SPXS
Bus Type Starlink V2MO
Phase Status In Orbit
Owner/State SPXS/US

Most Searched